Torna al catalogo

PIAST-M

AttivoScienzaSSO
NORAD 66758·PAYLOAD·🇵🇱 Poland

Lanciato Nov 28, 2025 da Vandenberg Space Force Base

Loading…

Prossimi Passaggi (prossime 24 ore)

TLE

AggiornatoSource: Space-Track

Epoca: Sep 14, 2026, 10:17 UTC

1 66758U 25276CW  26257.42906802  .00003831  00000-0  17595-3 0  9992
2 66758  97.4110 329.6645 0001957  60.4228 299.7203 15.20989414 43995

Traccia PIAST-M in tempo reale con AllMySat

Download on the App Store